Flag for U.S.A. Weather past 2 weeks in Wichita Falls, Texas, U.S.A.

Now
74 °F

Clear.


Feels Like: 73 °F
Forecast: 74 / 91 °F
Wind: 5 mph from Northwest

Location: Wichita Falls - Sheppard Air Force Base

Current Time: Aug 1, 2015 at 3:33:43 AM

Latest Report: Aug 1, 2015 at 2:52 AM


Visibility: 10 mi

Pressure: 30.02 "Hg

Humidity: 88%

Dew point: 70 °F

Location of Wichita FallsLocation

Historic Weather in Wichita Falls — Graph

°F

Wichita Falls temperature yesterday

Maximum temperature yesterday: 96 °F (at 1:52 PM)
Minimum temperature yesterday: 74 °F (at 6:52 PM)
Average temperature yesterday: 81 °F

Past Weeks' High & Low Weather Summary

 TemperatureHumidityPressure
High100 °F (Jul 29, 3:52 PM)97% (Jul 22, 4:52 AM)30.07 "Hg (Jul 22, 4:52 AM)
Low72 °F (Jul 25, 6:52 AM)30% (Jul 30, 4:52 PM)29.72 "Hg (Jul 21, 6:52 PM)
Average86 °F61%29.88 "Hg
* Reported Jul 17 1:52 AM — Aug 1 1:52 AM, Wichita Falls, Weather by CustomWeather, © 2015

Note: Actual official high and low records may vary slightly from our data, if they occured in-between our weather recording intervals... More about our weather records

Advertising

Wichita Falls weather history for previous 24 hours

 ConditionsComfort  
Time TempWeatherWind HumidityBarometerVisibility
1:52 AM
Sat, Aug 1
73 °FClear.7 mph94%30.02 "Hg10 mi
12:52 AM74 °FClear.3 mph91%30.03 "Hg10 mi
11:52 PM
Fri, Jul 31
74 °FClear.3 mph91%30.01 "Hg10 mi
10:52 PM74 °FClear.5 mph88%30.01 "Hg10 mi
9:52 PM75 °FClear.9 mph85%30.01 "Hg10 mi
8:52 PM75 °FPartly sunny.10 mph90%30.01 "Hg10 mi
7:52 PM76 °FThunderstorms. Overcast.7 mph91%30.03 "Hg9 mi
6:52 PM74 °FThunderstorms. Mostly cloudy.5 mph88%30.06 "Hg10 mi
5:52 PM79 °FThunderstorms. Scattered clouds.No wind82%30.00 "Hg9 mi
4:59 PM82 °FLight rain. Broken clouds.26 mph60%30.03 "Hg7 mi
3:52 PM96 °FScattered clouds.15 mph44%29.99 "Hg10 mi
2:52 PM96 °FScattered clouds.5 mph44%29.99 "Hg10 mi
1:52 PM96 °FScattered clouds.7 mph46%30.02 "Hg10 mi
12:52 PM93 °FScattered clouds.N/A50%30.04 "Hg10 mi
11:52 AM91 °FScattered clouds.5 mph56%30.06 "Hg9 mi
10:52 AM87 °FScattered clouds.7 mph63%30.06 "Hg9 mi
9:52 AM84 °FScattered clouds.6 mph67%30.06 "Hg9 mi
8:52 AM79 °FScattered clouds.6 mph77%30.06 "Hg10 mi
7:52 AM76 °FPassing clouds.3 mph85%30.05 "Hg9 mi
6:52 AM75 °FPassing clouds.6 mph88%30.04 "Hg9 mi
5:52 AM75 °FPassing clouds.5 mph88%30.04 "Hg10 mi
4:52 AM76 °FPassing clouds.7 mph85%30.03 "Hg10 mi
3:52 AM76 °FClear.6 mph82%30.04 "Hg10 mi
Weather by CustomWeather, © 2015

See weather overviewHow to use our weather pages